Stations météo

Publicité
Rouen, France (7037): Température de l'air & dewpoint: 11.02.2019 17:00:00 - 17.02.2019 17:00:00 (CET)Rouen, France (7037): Température de l'air 5cm: 11.02.2019 17:00:00 - 17.02.2019 17:00:00 (CET)Rouen, France (7037): Température de l'air -20cm & Température de l'air -100cm: 11.02.2019 17:00:00 - 17.02.2019 17:00:00 (CET)Rouen, France (7037): Vitesse du vent & gusts: 11.02.2019 17:00:00 - 17.02.2019 17:00:00 (CET)Rouen, France (7037): Direction du vent: 11.02.2019 17:00:00 - 17.02.2019 17:00:00 (CET)Rouen, France (7037): reduced air pressure: 11.02.2019 17:00:00 - 17.02.2019 17:00:00 (CET)Rouen, France (7037): visibility: 11.02.2019 17:00:00 - 17.02.2019 17:00:00 (CET)Rouen, France (7037): Ensoleillement: 11.02.2019 17:00:00 - 17.02.2019 17:00:00 (CET)Rouen, France (7037): Quantités de précipitations: 11.02.2019 17:00:00 - 17.02.2019 17:00:00 (CET)
Date & Time tt [°C] td [°C] tt 5cm [°C] tt -20cm [°C] tt -100cm [°C] ff [km/h] ff [knt] fx [km/h] fx [knt] dd ppp [hPa] vv [km] sd [min] rr [mm]
17.02.2019 17:00:00 14,3 5,1 14,8 5,7 6,9 14 8 21 11 SSW 1018,3 46 53 0,0
17.02.2019 16:00:00 15,1 4,5 16,9 5,6 7,0 16 9 25 14 S 1018,3 32 60 0,0
17.02.2019 15:00:00 15,5 4,2 18,1 5,4 6,9 16 9 31 17 S 1018,3 20 60 0,0
17.02.2019 14:00:00 15,8 3,9 16,3 5,3 6,9 22 12 32 17 SSW 1018,3 20 60 0,0
17.02.2019 13:00:00 13,4 2,0 14,6 5,2 6,9 21 11 32 18 S 1018,5 20 60 0,0
17.02.2019 12:00:00 11,3 1,2 12,5 5,2 7,0 21 11 34 18 S 1018,8 34 60 0,0
17.02.2019 11:00:00 9,2 0,1 10,1 5,3 7,0 20 11 30 16 S 1019,4 34 60 0,0
17.02.2019 10:00:00 7,9 -0,6 5,3 5,4 7,0 20 11 29 16 S 1019,8 32 60 0,0
17.02.2019 09:00:00 6,1 0,2 1,2 5,4 7,0 18 10 24 13 SSE 1019,8 30 8 0,0
17.02.2019 08:00:00 4,4 0,0 1,0 5,5 7,0 15 8 26 14 SSE 1019,9 27 0 0,0
17.02.2019 07:00:00 4,7 0,5 0,9 5,6 7,0 19 10 26 14 SE 1020,0 23 0 0,0
17.02.2019 06:00:00 4,8 1,1 0,1 5,6 7,0 14 8 20 11 SSE 1020,3 22 0 0,0
17.02.2019 05:00:00 5,0 1,5 0,8 5,7 6,9 15 8 16 9 SE 1020,7 26 0 0,0
17.02.2019 04:00:00 5,1 2,3 1,2 5,8 7,0 12 6 18 10 SE 1021,3 21 0 0,0
17.02.2019 03:00:00 5,5 3,3 0,4 5,8 7,0 13 7 18 10 SE 1021,9 17 0 0,0
17.02.2019 02:00:00 5,7 4,0 1,4 5,8 7,0 10 6 16 9 SSE 1022,5 13 0 0,0
17.02.2019 01:00:00 5,7 4,3 -0,5 5,9 7,0 14 7 18 10 SSE 1023,2 12 0 0,0
17.02.2019 00:00:00 5,9 4,2 -0,9 5,9 7,0 9 5 14 8 SE 1023,5 15 0 0,0
16.02.2019 23:00:00 7,1 5,1 2,7 6,0 7,0 10 6 18 10 SSE 1023,8 16 0 0,0
16.02.2019 22:00:00 7,6 5,4 3,0 6,0 7,0 13 7 18 10 SSE 1024,0 11 0 0,0
16.02.2019 21:00:00 7,5 5,1 -0,4 6,0 7,0 9 5 12 7 SE 1024,1 19 0 0,0
16.02.2019 20:00:00 8,3 4,7 3,6 5,9 7,0 10 5 17 9 SE 1024,2 21 0 0,0
16.02.2019 19:00:00 9,1 5,5 1,6 5,8 7,0 9 5 13 7 SSE 1024,3 20 0 0,0
16.02.2019 18:00:00 10,9 5,4 7,1 5,7 7,0 8 4 14 8 SSE 1023,9 20 14 0,0
16.02.2019 17:00:00 13,9 6,7 16,3 5,5 7,0 9 5 14 8 SE 1024,0 24 56 0,0
16.02.2019 16:00:00 15,1 5,0 18,4 5,3 7,0 6 4 12 6 S 1024,6 20 60 0,0
16.02.2019 15:00:00 14,5 5,3 17,3 5,1 7,0 7 4 14 8 S 1025,0 13 60 0,0
16.02.2019 14:00:00 13,7 4,6 17,0 5,0 7,0 6 3 11 6 S 1025,8 12 60 0,0
16.02.2019 13:00:00 12,1 3,6 14,7 4,9 7,0 7 4 16 9 SSW 1026,5 11 60 0,0
16.02.2019 12:00:00 10,1 3,6 11,6 4,9 7,0 9 5 18 10 S 1027,0 10 60 0,0
16.02.2019 11:00:00 7,5 3,0 8,5 5,0 7,0 11 6 15 8 SSE 1027,1 8 60 0,0
16.02.2019 10:00:00 5,0 2,4 1,5 5,1 7,0 9 5 13 7 SSE 1027,2 7 60 0,0
16.02.2019 09:00:00 2,4 1,1 -2,2 5,1 7,0 8 5 13 7 SSE 1027,1 9 9 0,0
16.02.2019 08:00:00 1,5 0,5 -3,6 5,2 7,0 11 6 13 7 SSE 1026,5 9 0 0,0
16.02.2019 07:00:00 2,1 1,2 -4,0 5,3 7,0 10 5 14 7 SSE 1026,2 9 0 0,0
16.02.2019 06:00:00 2,0 1,3 -3,7 5,4 7,0 9 5 11 6 SSE 1026,5 6 0 0,0
16.02.2019 05:00:00 2,1 1,5 -4,2 5,5 7,0 9 5 12 7 SSE 1026,3 5 0 0,0
16.02.2019 04:00:00 1,9 0,9 -4,5 5,6 7,0 8 4 13 7 S 1026,4 7 0 0,0
16.02.2019 03:00:00 2,7 1,7 -4,3 5,7 7,0 6 3 10 5 S 1026,8 9 0 0,0
16.02.2019 02:00:00 3,7 2,2 -3,2 5,8 7,0 9 5 14 7 S 1027,0 13 0 0,0
16.02.2019 01:00:00 4,2 1,7 -3,5 5,8 7,0 9 5 14 7 S 1027,0 16 0 0,0
16.02.2019 00:00:00 4,1 1,5 -3,2 5,8 7,0 8 4 13 7 SSE 1027,1 17 0 0,0
15.02.2019 23:00:00 4,7 1,9 -1,0 5,9 7,0 8 4 20 11 S 1027,0 14 0 0,0
15.02.2019 22:00:00 6,4 2,3 -2,3 5,9 7,0 13 7 17 9 SSE 1026,8 20 0 0,0
15.02.2019 21:00:00 7,3 2,8 -2,5 5,9 7,0 10 5 13 7 SSE 1026,9 22 0 0,0
15.02.2019 20:00:00 6,5 2,9 -1,6 5,9 7,0 5 3 9 5 S 1027,3 17 0 0,0
15.02.2019 19:00:00 7,2 2,5 -0,5 5,8 7,0 6 4 9 5 E 1027,2 20 0 0,0
15.02.2019 18:00:00 9,8 3,7 6,4 5,6 7,0 9 5 18 10 SE 1026,8 22 19 0,0
15.02.2019 17:00:00 12,8 4,5 16,3 5,5 7,0 10 5 16 9 SE 1026,8 19 60 0,0
15.02.2019 16:00:00 13,9 5,0 16,9 5,3 7,0 10 6 17 9 SSE 1027,2 14 60 0,0
15.02.2019 15:00:00 13,4 4,5 16,5 5,1 7,0 11 6 18 10 SSE 1027,6 13 60 0,0
15.02.2019 14:00:00 12,6 4,8 15,4 5,0 7,0 12 6 21 11 SE 1028,0 12 60 0,0
15.02.2019 13:00:00 11,4 4,1 13,9 4,9 7,0 13 7 19 10 SE 1028,8 12 60 0,0
15.02.2019 12:00:00 10,0 3,9 12,4 4,9 7,0 13 7 18 10 SE 1029,5 12 60 0,0
15.02.2019 11:00:00 7,8 2,9 8,7 5,0 7,0 15 8 20 11 SSE 1029,8 10 60 0,0
15.02.2019 10:00:00 5,8 2,1 1,5 5,0 7,0 13 7 18 10 SE 1030,0 9 58 0,0
15.02.2019 09:00:00 3,2 1,2 -3,4 5,1 7,0 14 8 18 10 ESE 1030,5 9 7 0,0
15.02.2019 08:00:00 1,4 0,2 -3,4 5,2 7,0 10 5 16 8 ESE 1030,5 9 0 0,0
15.02.2019 07:00:00 1,6 0,6 -4,8 5,3 7,0 11 6 15 8 ESE 1030,3 9 0 0,0
15.02.2019 06:00:00 1,0 0,0 -4,8 5,3 7,0 6 3 9 5 E 1030,3 7 0 0,0
15.02.2019 05:00:00 1,6 0,4 -4,0 5,4 7,0 4 2 13 7 ESE 1030,1 9 0 0,0
15.02.2019 04:00:00 2,1 0,8 -3,2 5,5 7,0 11 6 14 8 ESE 1030,3 10 0 0,0
15.02.2019 03:00:00 1,9 0,4 -0,6 5,5 7,0 11 6 14 8 ESE 1030,6 10 0 0,0
15.02.2019 02:00:00 3,6 2,0 -0,1 5,6 7,0 12 7 15 8 ESE 1030,8 11 0 0,0
15.02.2019 01:00:00 3,4 1,8 0,9 5,6 7,0 12 6 19 10 ESE 1030,9 10 0 0,0
15.02.2019 00:00:00 3,9 1,8 0,1 5,7 7,0 15 8 17 9 ESE 1031,0 13 0 0,0
14.02.2019 23:00:00 3,7 1,4 0,4 5,7 7,0 9 5 11 6 ESE 1031,4 12 0 0,0
14.02.2019 22:00:00 4,9 2,6 1,7 5,8 7,0 6 4 17 9 ESE 1031,4 12 0 0,0
14.02.2019 21:00:00 4,5 2,5 -1,6 5,7 7,0 9 5 17 9 E 1031,5 13 0 0,0
14.02.2019 20:00:00 5,9 2,9 3,6 5,7 7,0 15 8 21 11 E 1031,5 13 0 0,0
14.02.2019 19:00:00 6,7 3,7 4,4 5,6 7,0 13 7 22 12 E 1031,7 13 0 0,0
14.02.2019 18:00:00 8,1 4,3 6,4 5,5 7,0 13 7 19 10 ESE 1031,2 13 2 0,0
14.02.2019 17:00:00 10,2 5,0 13,0 5,3 7,0 11 6 18 10 E 1031,3 17 58 0,0
14.02.2019 16:00:00 11,4 4,8 15,3 5,1 7,0 13 7 18 10 E 1031,9 14 60 0,0
14.02.2019 15:00:00 11,5 4,5 15,0 5,0 7,0 8 4 14 7 E 1032,2 12 60 0,0
14.02.2019 14:00:00 11,1 4,1 13,3 4,9 7,0 8 5 14 8 SE 1032,9 10 60 0,0
14.02.2019 13:00:00 9,8 3,7 12,3 4,8 7,0 8 5 14 7 SSE 1033,7 9 60 0,0
14.02.2019 12:00:00 7,7 3,2 9,6 4,8 7,0 8 4 13 7 ESE 1034,2 9 60 0,0
14.02.2019 11:00:00 6,1 2,4 7,3 4,9 7,0 10 5 13 7 SE 1034,5 9 60 0,0
14.02.2019 10:00:00 3,9 1,6 -0,1 5,0 7,0 8 4 14 7 ESE 1034,2 7 53 0,0
14.02.2019 09:00:00 1,2 0,3 -2,6 5,0 7,0 9 5 14 7 ESE 1034,5 7 4 0,0
14.02.2019 08:00:00 0,0 -0,7 -4,4 5,1 7,1 8 4 14 8 ESE 1034,3 7 0 0,0
14.02.2019 07:00:00 0,4 -0,6 -3,8 5,2 7,0 8 5 16 9 ESE 1034,3 8 0 0,0
14.02.2019 06:00:00 0,1 -0,8 -4,3 5,2 7,0 7 4 11 6 E 1034,3 5 0 0,0
14.02.2019 05:00:00 0,3 -1,0 -3,5 5,3 7,0 9 5 11 6 ENE 1034,1 7 0 0,0
14.02.2019 04:00:00 0,3 -1,0 -2,5 5,4 7,0 9 5 14 7 ESE 1034,0 11 0 0,0
14.02.2019 03:00:00 1,6 0,0 -1,0 5,4 7,0 11 6 16 9 SE 1034,0 12 0 0,0
14.02.2019 02:00:00 1,6 0,0 -0,5 5,5 7,0 11 6 17 9 SE 1034,3 14 0 0,0
14.02.2019 01:00:00 2,3 0,5 -2,4 5,5 7,0 13 7 16 9 ESE 1034,7 14 0 0,0
14.02.2019 00:00:00 2,0 -0,1 -1,5 5,6 7,0 10 5 21 11 SE 1034,8 12 0 0,0
13.02.2019 23:00:00 3,8 0,8 1,4 5,7 7,0 19 11 26 14 ESE 1034,6 16 0 0,0
13.02.2019 22:00:00 2,9 0,9 1,1 5,7 7,0 15 8 21 11 ESE 1034,9 10 0 0,0
13.02.2019 21:00:00 3,5 1,2 -0,6 5,7 7,0 13 7 16 9 ESE 1035,1 10 0 0,0
13.02.2019 20:00:00 3,0 1,5 -1,0 5,7 7,0 11 6 18 10 ESE 1035,0 9 0 0,0
13.02.2019 19:00:00 3,9 2,1 2,1 5,6 7,0 13 7 16 9 E 1034,6 12 0 0,0
13.02.2019 18:00:00 5,5 1,8 3,6 5,5 7,0 8 4 13 7 ESE 1034,5 24 0 0,0
13.02.2019 17:00:00 7,9 1,5 9,8 5,4 7,0 8 4 19 11 SSE 1034,4 19 50 0,0
13.02.2019 16:00:00 8,8 1,2 11,6 5,2 7,0 11 6 21 12 SSE 1034,6 22 60 0,0
13.02.2019 15:00:00 8,6 1,7 11,2 5,1 7,0 16 8 22 12 S 1034,8 19 60 0,0
13.02.2019 14:00:00 8,2 2,8 9,8 5,1 7,0 13 7 26 14 SSE 1035,4 14 60 0,0
13.02.2019 13:00:00 6,4 2,1 9,0 5,0 7,0 16 9 24 13 S 1036,2 12 60 0,0
13.02.2019 12:00:00 5,9 2,5 8,5 5,1 7,0 13 7 22 12 SSE 1036,6 12 60 0,0
13.02.2019 11:00:00 4,7 2,6 6,7 5,1 7,0 12 7 18 10 SSE 1036,6 12 60 0,0
13.02.2019 10:00:00 3,1 2,1 -1,5 5,2 7,0 9 5 14 7 SE 1036,7 7 46 0,0
13.02.2019 09:00:00 0,4 0,0 -5,9 5,3 7,0 4 2 10 5 ESE 1037,0 4,5 0 0,0
13.02.2019 08:00:00 -1,0 -1,6 -6,2 5,4 7,0 6 4 8 5 SE 1036,8 6 0 0,0
13.02.2019 07:00:00 -1,0 -1,6 -6,0 5,5 7,0 7 4 9 5 SE 1036,8 7 0 0,0
13.02.2019 06:00:00 -0,4 -1,0 -5,6 5,6 7,0 6 3 9 5 SE 1036,8 8 0 0,0
13.02.2019 05:00:00 -0,1 -0,8 -5,4 5,6 7,0 5 3 8 4 SSE 1036,7 11 0 0,0
13.02.2019 04:00:00 0,3 -0,7 -5,0 5,8 7,0 5 3 13 7 SSE 1036,7 15 0 0,0
13.02.2019 03:00:00 1,2 0,3 -4,0 5,8 7,0 8 4 10 6 S 1037,0 20 0 0,0
13.02.2019 02:00:00 1,2 0,2 -3,9 5,9 7,0 8 5 12 6 SSE 1037,1 19 0 0,0
13.02.2019 01:00:00 1,5 0,2 -2,9 6,0 7,0 9 5 12 7 SSE 1037,0 19 0 0,0
13.02.2019 00:00:00 2,0 0,8 -3,4 6,1 7,0 9 5 12 7 SSE 1036,9 35 0 0,0
12.02.2019 23:00:00 1,9 0,7 -3,1 6,1 7,0 10 5 12 6 SSE 1036,7 24 0 0,0
12.02.2019 22:00:00 2,5 1,2 -2,7 6,1 7,0 7 4 11 6 SSE 1037,1 25 0 0,0
12.02.2019 21:00:00 3,3 1,3 -2,4 6,1 7,0 8 4 15 8 SSE 1037,0 35 0 0,0
12.02.2019 20:00:00 3,2 1,6 -2,3 6,2 7,0 8 4 9 5 SSE 1036,8 13 0 0,0
12.02.2019 19:00:00 4,5 1,5 -1,2 6,1 7,0 3 1 3 2 SE 1036,5 52 0 0,0
12.02.2019 18:00:00 6,3 2,4 2,7 6,0 7,0 3 2 11 6 WSW 1036,1 57 0 0,0
12.02.2019 17:00:00 8,4 3,0 9,4 5,9 7,0 6 4 9 5 SSW 1035,7 60 1 0,0
12.02.2019 16:00:00 8,9 2,2 9,8 5,8 7,0 3 2 15 8 WNW 1035,7 58 20 0,0
12.02.2019 15:00:00 9,1 3,1 9,8 5,7 7,0 5 3 11 6 S 1035,8 48 9 0,0
12.02.2019 14:00:00 8,3 3,1 10,4 5,6 7,0 8 4 17 9 SW 1036,1 47 4 0,0
12.02.2019 13:00:00 9,1 3,1 10,8 5,5 7,0 12 6 18 10 SW 1036,3 9 30 0,0
12.02.2019 12:00:00 8,2 3,0 9,1 5,5 7,0 10 5 16 9 SSW 1036,6 14 38 0,0
12.02.2019 11:00:00 5,5 3,0 4,1 5,5 7,0 5 3 9 5 SSW 1036,3 36 5 0,0
12.02.2019 10:00:00 2,9 2,2 2,2 5,6 7,0 4 2 7 4 SSE 1036,5 10 0 0,0
12.02.2019 09:00:00 2,0 1,4 1,2 5,6 7,0 4 2 5 3 S 1036,5 9 0 0,0
12.02.2019 08:00:00 1,6 1,0 1,1 5,6 7,0 2 1 9 5 SSW 1035,8 7 0 0,0
12.02.2019 07:00:00 1,7 1,1 1,4 5,7 7,0 5 3 9 5 S 1035,2 1,6 0 0,0
12.02.2019 06:00:00 2,2 1,6 1,6 5,7 7,0 5 3 7 4 SSE 1035,3 6 0 0,0
12.02.2019 05:00:00 2,1 1,5 0,6 5,8 6,9 5 3 8 4 SSW 1035,5 8 0 0,0
12.02.2019 04:00:00 1,9 1,3 -0,2 5,8 6,9 4 2 6 4 S 1035,2 9 0 0,0
12.02.2019 03:00:00 1,4 0,5 -2,6 5,9 7,0 3 2 10 6 SSE 1035,2 9 0 0,0
12.02.2019 02:00:00 1,4 0,5 -3,0 6,0 6,9 5 3 9 5 WNW 1035,1 17 0 0,0
12.02.2019 01:00:00 1,8 0,8 -2,4 6,0 6,9 3 1 4 2 SW 1034,7 13 0 0,0
12.02.2019 00:00:00 3,1 2,2 -0,7 6,1 6,9 4 2 6 3 WSW 1034,5 17 0 0,0
11.02.2019 23:00:00 2,9 2,0 0,6 6,1 6,9 3 2 5 3 W 1034,2 16 0 0,0
11.02.2019 22:00:00 2,3 1,6 -2,8 6,2 6,9 4 2 8 4 NNW 1033,7 17 0 0,0
11.02.2019 21:00:00 2,2 1,2 -2,7 6,2 6,9 4 2 8 4 NW 1033,1 20 0 0,0
11.02.2019 20:00:00 3,1 1,3 -2,0 6,2 6,9 5 3 12 7 NW 1032,4 25 0 0,0
11.02.2019 19:00:00 4,3 1,7 0,7 6,2 6,9 8 5 18 10 NW 1031,3 16 0 0,0
11.02.2019 18:00:00 6,2 2,8 5,3 6,1 6,9 9 5 17 9 NW 1030,6 60 0 0,0
11.02.2019 17:00:00 6,9 3,1 7,0 6,1 6,9 11 6 26 14 NNW 1029,5 60 0 0,0

tt = Température de l'air
td = dewpoint
tt 5cm = Température de l'air 5cm
tt -20cm = Température de l'air -20cm
tt -100cm = Température de l'air -100cm
ff = Vitesse du vent
fx = gusts
dd = Direction du vent
ppp = reduced air pressure
vv = visibility
sd = Ensoleillement
rr = Quantités de précipitations

stations d'obs. à proximité